Location: Svitavy
(49.7500°N, 16.4667°E)
Time: 17:12:28
(UTC+01:00)

ISS - Pass Details

Date: 23 January 2020
Orbit: 415 x 422 km, 51.6° (Epoch: 26 February)

Event Time Altitude Azimuth Distance (km) Brightness Sun altitude
Rises 19:07:40 0° 246° (WSW) 2,373 1.2 -24.6°
Reaches altitude 10° 19:09:46 10° 245° (WSW) 1,508 -0.1 -24.9°
Enters shadow 19:11:38 30° 240° (WSW) 785 -1.9 -25.2°
